Terminal Aerodrome Forecast
Issued by NWS Charleston, WV

Current Version | Previous Version | Graphics & Text | Print | Product List | Glossary On
Versions: 1 2 3 4 5 6 7 8 9 10 11 12 13 14 15 16 17 18 19 20 21 22
376
FTUS41 KRLX 270253 AAA
TAFPKB
TAF AMD
KPKB 270253Z 2703/2724 27003KT P6SM SKC
     FM270700 22004KT 1SM BR FEW001
     FM270900 VRB03KT 1/4SM FG OVC001
     FM271300 21004KT 1 1/2SM BR SCT001
     FM271400 22005KT 3SM BR FEW002
     FM271500 22006KT P6SM SKC=

USA.gov is the U.S. government's official web portal to all federal, state and local government web resources and services.